DW1824 Weather Reports


time (UTC)temp
C
wind
direction
speed
KPH
gust
KPH
rain 1hr
cm
rain 24hr
cm
rain mn
cm
humidity
%
barometer
mb
20260508104343 20 283 4.8 12.9 0.00 0.00 0.00 84 1013.4
20260508103328 20 76 0.0 0.0 0.00 0.00 0.00 84 1012.8
20260508102335 20 76 0.0 1.6 0.00 0.00 0.00 83 1013.1
20260508101344 20 77 0.0 4.8 0.00 0.00 0.00 83 1012.9
20260508100333 20 69 0.0 1.6 0.00 0.00 0.00 83 1012.6
20260508095324 19 52 0.0 4.8 0.00 0.00 0.00 84 1013.1
20260508094331 19 88 0.0 12.9 0.00 0.00 0.00 84 1013.4
20260508093336 19 298 1.6 6.4 0.00 0.00 0.00 84 1014.0
20260508092402 19 350 4.8 9.7 0.00 0.00 0.00 84 1013.7
20260508091327 19 296 3.2 12.9 0.00 0.00 0.00 84 1013.5
20260508090352 19 49 3.2 9.7 0.00 0.00 0.00 83 1013.0
20260508085340 19 340 1.6 6.4 0.00 0.00 0.00 84 1013.2
20260508084332 19 47 0.0 6.4 0.00 0.00 0.00 83 1013.0
20260508083341 19 64 0.0 6.4 0.00 0.00 0.00 83 1012.6
20260508082350 19 22 0.0 6.4 0.00 0.00 0.00 83 1012.8
20260508081337 19 308 0.0 4.8 0.00 0.00 0.00 84 1013.6
20260508080342 19 316 0.0 0.0 0.00 0.00 0.00 83 1013.7
20260508075351 19 17 0.0 4.8 0.00 0.00 0.00 84 1013.4
20260508074335 19 2 0.0 3.2 0.00 0.00 0.00 84 1013.4
20260508073342 19 4 0.0 4.8 0.00 0.00 0.00 84 1013.7
20260508072333 19 340 1.6 6.4 0.00 0.00 0.00 84 1013.9
20260508071340 19 345 3.2 8.0 0.00 0.00 0.00 83 1014.0
20260508070325 19 332 1.6 6.4 0.00 0.00 0.00 84 1014.1
20260508064339 19 8 1.6 6.4 0.00 0.00 0.00 84 1014.1
20260508063342 19 9 3.2 6.4 0.00 0.00 0.00 84 1014.0
20260508062329 19 333 0.0 6.4 0.00 0.00 0.00 85 1014.0
20260508061341 18 350 1.6 4.8 0.00 0.00 0.00 85 1013.9
20260508060325 18 11 1.6 6.4 0.00 0.00 0.00 85 1013.5
20260508055329 18 323 1.6 4.8 0.00 0.00 0.00 85 1013.7
20260508054337 18 326 0.0 4.8 0.00 0.00 0.00 85 1013.7
20260508053342 18 314 0.0 3.2 0.00 0.00 0.00 84 1013.8
20260508052352 19 333 0.0 1.6 0.00 0.00 0.00 83 1013.7
20260508051337 19 333 0.0 1.6 0.00 0.00 0.00 83 1013.9
20260508050342 19 340 0.0 3.2 0.00 0.00 0.00 83 1013.9
20260508045334 19 304 1.6 4.8 0.00 0.00 0.00 82 1014.1
20260508044400 19 356 1.6 6.4 0.00 0.00 0.00 81 1014.0
20260508043342 19 340 1.6 6.4 0.00 0.00 0.00 82 1014.1
20260508042327 19 345 3.2 6.4 0.00 0.00 0.00 81 1014.2
20260508041337 19 307 1.6 8.0 0.00 0.00 0.00 81 1014.4
20260508040340 19 9 1.6 6.4 0.00 0.00 0.00 80 1014.0
20260508035327 19 358 3.2 9.7 0.00 0.00 0.00 80 1013.8
20260508034338 19 304 4.8 9.7 0.00 0.00 0.00 80 1014.1
20260508033402 20 322 3.2 8.0 0.00 0.00 0.00 80 1013.8
20260508032326 20 4 3.2 4.8 0.00 0.00 0.00 79 1013.7
20260508031333 20 350 0.0 3.2 0.00 0.00 0.00 78 1013.1
20260508030337 20 60 1.6 3.2 0.00 0.00 0.00 78 1013.1
20260508025326 20 24 0.0 6.4 0.00 0.00 0.00 77 1013.9
20260508024332 20 2 1.6 8.0 0.00 0.00 0.00 77 1014.2
20260508023338 20 334 4.8 9.7 0.00 0.00 0.00 77 1014.3
20260508022328 20 295 3.2 12.9 0.00 0.00 0.00 77 1014.3
20260508021335 20 299 3.2 9.7 0.00 0.00 0.00 77 1014.3
20260508020337 20 25 3.2 12.9 0.00 0.00 0.00 77 1014.0
20260508015343 20 323 4.8 9.7 0.00 0.00 0.00 77 1014.2
20260508014350 20 329 3.2 12.9 0.00 0.00 0.00 77 1014.3
20260508013331 20 322 3.2 12.9 0.00 0.00 0.00 76 1014.3
20260508012337 21 310 3.2 9.7 0.00 0.00 0.00 76 1014.1
20260508011343 21 327 4.8 12.9 0.00 0.00 0.00 75 1014.0
20260508010331 21 9 3.2 17.7 0.00 0.00 0.00 75 1014.2
20260508005338 21 316 3.2 9.7 0.00 0.00 0.00 75 1014.2
20260508004346 21 354 3.2 9.7 0.00 0.00 0.00 74 1013.8
20260508003351 22 276 4.8 12.9 0.00 0.00 0.00 74 1014.1
20260508002339 22 15 4.8 9.7 0.00 0.00 0.00 73 1014.1
20260508001327 22 27 3.2 12.9 0.00 0.00 0.00 73 1014.0
20260508000334 23 294 6.4 17.7 0.00 0.00 0.00 71 1014.0
20260507235359 23 315 6.4 19.3 0.00 0.00 0.00 71 1014.3
20260507234328 24 285 8.0 16.1 0.00 0.00 0.00 72 1014.5
20260507233332 24 8 1.6 6.4 0.00 0.00 0.00 73 1014.3
20260507232400 24 19 3.2 6.4 0.00 0.00 0.00 73 1014.4
20260507231326 24 4 0.0 12.9 0.00 0.00 0.00 72 1014.1
20260507230330 24 77 4.8 16.1 0.00 0.00 0.00 71 1014.1
20260507225333 25 17 1.6 12.9 0.00 0.00 0.00 72 1014.0
20260507224342 25 15 6.4 14.5 0.00 0.00 0.00 71 1013.8
20260507223347 25 2 6.4 14.5 0.00 0.00 0.00 71 1013.6
20260507222338 25 360 3.2 17.7 0.00 0.00 0.00 71 1013.5
20260507221328 25 350 6.4 16.1 0.00 0.00 0.00 70 1013.6
20260507220333 25 25 3.2 11.3 0.00 0.00 0.00 71 1013.5
20260507215339 25 65 3.2 14.5 0.00 0.00 0.00 71 1013.6
20260507214327 25 50 3.2 14.5 0.00 0.00 0.00 71 1013.8
20260507213333 25 21 1.6 16.1 0.00 0.00 0.00 70 1013.9
20260507212325 25 60 3.2 16.1 0.00 0.00 0.00 69 1014.0
20260507211332 25 8 4.8 16.1 0.00 0.00 0.00 68 1014.2
20260507210355 25 56 4.8 16.1 0.00 0.00 0.00 70 1014.2
20260507205339 25 340 9.7 20.9 0.00 0.00 0.00 68 1014.4
20260507204327 25 6 4.8 17.7 0.00 0.00 0.00 71 1014.5
20260507203331 25 24 8.0 16.1 0.00 0.00 0.00 72 1014.6
20260507202356 25 331 8.0 16.1 0.00 0.00 0.00 72 1014.6
20260507201402 24 2 6.4 17.7 0.00 0.00 0.00 71 1014.7
20260507200326 24 40 8.0 20.9 0.00 0.00 0.00 70 1014.7
20260507195351 24 296 6.4 14.5 0.00 0.00 0.00 72 1014.9
20260507194339 23 324 6.4 17.7 0.00 0.00 0.00 72 1015.0
20260507193339 23 15 8.0 19.3 0.00 0.00 0.00 72 1014.9
20260507192325 23 317 4.8 19.3 0.00 0.00 0.00 73 1015.1
20260507191332 22 52 6.4 16.1 0.00 0.00 0.00 73 1015.4
20260507190356 22 5 8.0 19.3 0.00 0.00 0.00 74 1015.8
20260507185324 22 18 6.4 17.7 0.00 0.03 0.00 75 1015.9
20260507184350 22 13 6.4 17.7 0.00 0.03 0.00 77 1016.1
20260507183333 21 314 9.7 19.3 0.00 0.03 0.00 76 1016.4
20260507182401 21 350 8.0 25.7 0.00 0.03 0.00 77 1016.5
20260507181329 21 345 9.7 20.9 0.00 0.03 0.00 77 1016.4
20260507180353 21 335 8.0 20.9 0.00 0.03 0.00 77 1016.6
20260507175356 21 323 9.7 20.9 0.00 0.05 0.00 76 1016.5
20260507174342 21 333 8.0 20.9 0.00 0.05 0.00 77 1016.7
20260507173327 20 25 6.4 24.1 0.00 0.05 0.00 77 1016.7
20260507172354 20 350 4.8 19.3 0.00 0.05 0.00 78 1017.0
20260507171358 20 7 8.0 19.3 0.00 0.05 0.00 78 1017.0
20260507170340 20 345 8.0 20.9 0.00 0.05 0.00 78 1017.2
20260507165327 20 4 8.0 16.1 0.00 0.08 0.00 80 1017.2
20260507164338 19 350 8.0 22.5 0.00 0.08 0.00 80 1017.2
20260507163322 20 306 8.0 24.1 0.00 0.08 0.00 79 1017.3
20260507162329 19 9 12.9 24.1 0.00 0.08 0.00 79 1017.1
20260507161335 19 359 1.6 22.5 0.00 0.08 0.00 81 1017.0
20260507160359 18 31 4.8 17.7 0.00 0.08 0.00 81 1017.0
20260507155344 18 33 4.8 20.9 0.00 0.08 0.00 81 1016.8
20260507154329 18 36 8.0 22.5 0.00 0.08 0.00 81 1016.6
20260507153334 18 340 9.7 20.9 0.00 0.08 0.00 82 1016.6
20260507152326 18 300 8.0 19.3 0.00 0.08 0.00 83 1016.7
20260507151335 17 16 6.4 17.7 0.00 0.08 0.00 83 1016.8
20260507150341 17 340 4.8 17.7 0.00 0.08 0.00 84 1017.0
20260507145329 17 340 8.0 20.9 0.00 0.08 0.00 84 1017.2
20260507144335 17 47 6.4 20.9 0.00 0.08 0.00 85 1016.9
20260507143339 17 345 4.8 20.9 0.00 0.08 0.00 87 1017.0
20260507142325 17 355 8.0 19.3 0.00 0.08 0.00 87 1016.6
20260507141336 17 350 9.7 29.0 0.00 0.08 0.00 87 1016.3
20260507140342 17 39 9.7 25.7 0.00 0.08 0.00 87 1016.1
20260507135328 17 15 12.9 32.2 0.00 0.08 0.00 88 1015.8
20260507134335 17 310 8.0 24.1 0.00 0.08 0.00 89 1015.7
20260507133339 17 327 9.7 24.1 0.00 0.08 0.00 89 1016.2
20260507132326 17 49 8.0 19.3 0.00 0.08 0.00 89 1016.3
20260507131336 17 79 9.7 22.5 0.00 0.08 0.00 89 1016.4
20260507130339 17 350 11.3 29.0 0.00 0.08 0.00 89 1016.4
20260507125327 17 298 8.0 19.3 0.00 0.08 0.00 89 1016.7
20260507124334 18 350 4.8 25.7 0.00 0.08 0.00 89 1016.7
20260507123338 18 345 8.0 17.7 0.00 0.08 0.00 89 1016.5
20260507122323 18 321 4.8 20.9 0.00 0.08 0.00 89 1016.5
20260507121331 18 345 6.4 24.1 0.00 0.08 0.00 88 1016.0
20260507120335 18 323 6.4 19.3 0.00 0.08 0.00 88 1015.6
20260507115326 18 329 6.4 16.1 0.00 0.08 0.00 88 1015.4
20260507114334 18 335 8.0 20.9 0.00 0.08 0.00 88 1014.9
20260507113338 18 340 8.0 22.5 0.00 0.08 0.00 88 1014.7
20260507112325 18 340 9.7 19.3 0.00 0.08 0.00 87 1015.2
20260507111331 18 356 4.8 16.1 0.00 0.08 0.00 87 1015.1
20260507110355 18 360 6.4 17.7 0.00 0.08 0.00 87 1015.0
20260507105324 18 340 4.8 17.7 0.00 0.08 0.00 87 1014.6